Location: Bocchiglicro
(39.4167°N, 16.7500°E)
Time: 02:51:06
(UTC+00:00)

STARLINK-60 - Pass Details

Date: 07 June 2020
Orbit: 383 x 391 km, 53.0° (Epoch: 06 July)

Event Time Altitude Azimuth Distance (km) Brightness Sun altitude
Rises 02:18:02 0° 298° (WNW) 2,277 6.6 -11.4°
Reaches altitude 10° 02:20:23 10° 282° (WNW) 1,421 5.4 -11.0°
Maximum altitude 02:22:53 22° 230° (SW) 922 4.1 -10.7°
Drops below altitude 10° 02:25:24 10° 177° (S) 1,420 5.4 -10.3°
Sets 02:27:45 0° 161° (SSE) 2,274 6.6 -10.0°
